Weather History for Santa Maria, CA

Change the Weather History Date:

Wednesday, April 16, 2014

  Actual Average Record
Temperature  
Mean Temperature 60 °F 56 °F  
Max Temperature 70 °F 67 °F 86 °F (1952)
Min Temperature 50 °F 44 °F 32 °F (1976)
Degree Days  
Heating Degree Days 5 9  
Month to date heating degree days 94 160  
Since 1 July heating degree days 1388 2333  
Cooling Degree Days 0 0  
Month to date cooling degree days 2 0  
Year to date cooling degree days 14 2  
Growing Degree Days 10 (Base 50)    
Moisture  
Dew Point 48 °F    
Average Humidity 68    
Maximum Humidity 89    
Minimum Humidity 47    
Precipitation  
Precipitation 0.00 in 0.03 in 0.34 in (1920)
Month to date precipitation 0.72 0.64  
Year to date precipitation 3.88 9.02  
Since 1 July precipitation 4.38 13.26  
Sea Level Pressure  
Sea Level Pressure 29.88 in    
Wind  
Wind Speed 7 mph (SSW)    
Max Wind Speed 18 mph    
Max Gust Speed 24 mph    
Visibility 6 miles    
Events      
T = Trace of Precipitation, MM = Missing Value Source: NWS Daily Summary

Daily Weather History Graph

Daily Weather History Graph

Search for Another Location

Airport:

Trip Planner

Search our weather history database for the weather conditions in past years. The results will help you decide how hot, cold, wet, or windy it might be!

Date:

Astronomy

Apr. 16, 2014 Rise Set
Actual Time 6:28 AM PDT 7:35 PM PDT
Civil Twilight 6:02 AM PDT 8:01 PM PDT
Nautical Twilight 5:31 AM PDT 8:32 PM PDT
Astronomical Twilight 4:59 AM PDT 9:04 PM PDT
Moon 9:20 PM PDT (4/16) 7:22 AM PDT (4/16)
Length of Visible Light 13h 58m
Length of Day
13h 06m
Full, 98% of the Moon is Illuminated
Apr 16
Full
Apr 22
Last Quarter
Apr 28
New
May 6
First Quarter
May 14
Full

Hourly Weather History & Observations

Time (PDT) Temp. Dew Point Humidity Pressure Visibility Wind Dir Wind Speed Gust Speed Precip Events Conditions
12:15 AM 50.0 °F 46.4 °F 87% 29.92 in 6.0 mi Calm Calm - N/A   Mostly Cloudy
12:51 AM 51.1 °F 46.9 °F 86% 29.92 in 6.0 mi Calm Calm - N/A   Overcast
1:51 AM 50.0 °F 46.0 °F 86% 29.92 in 7.0 mi SSE 4.6 mph - N/A   Overcast
2:01 AM 50.0 °F 46.4 °F 87% 29.91 in 7.0 mi SSE 4.6 mph - N/A   Overcast
2:36 AM 51.8 °F 46.4 °F 82% 29.90 in 6.0 mi North - - N/A   Haze
2:51 AM 52.0 °F 46.9 °F 83% 29.91 in 6.0 mi Calm Calm - N/A   Haze
3:51 AM 51.1 °F 48.0 °F 89% 29.91 in 4.0 mi South 4.6 mph - N/A   Overcast
4:14 AM 51.8 °F 48.2 °F 88% 29.90 in 3.0 mi South 5.8 mph - N/A   Overcast
4:51 AM 51.1 °F 48.0 °F 89% 29.91 in 3.0 mi South 5.8 mph - N/A   Overcast
5:00 AM 51.8 °F 48.2 °F 88% 29.90 in 2.0 mi South 6.9 mph - N/A   Overcast
5:07 AM 51.8 °F 48.2 °F 88% 29.90 in 1.8 mi South 5.8 mph - N/A   Overcast
5:14 AM 51.8 °F 48.2 °F 88% 29.90 in 3.0 mi South 5.8 mph - N/A   Overcast
5:51 AM 51.1 °F 48.0 °F 89% 29.90 in 3.0 mi SSE 5.8 mph - N/A   Overcast
6:04 AM 51.8 °F 48.2 °F 88% 29.89 in 2.5 mi SSE 5.8 mph - N/A   Overcast
6:11 AM 51.8 °F 48.2 °F 88% 29.89 in 3.0 mi SSE 5.8 mph - N/A   Overcast
6:38 AM 50.0 °F 48.2 °F 94% 29.89 in 2.5 mi South 5.8 mph - N/A   Overcast
6:51 AM 50.0 °F 46.9 °F 89% 29.90 in 2.5 mi SSE 6.9 mph - N/A   Overcast
7:05 AM 50.0 °F 46.4 °F 87% 29.90 in 3.0 mi SSE 6.9 mph - N/A   Overcast
7:51 AM 51.1 °F 48.0 °F 89% 29.91 in 6.0 mi South 3.5 mph - N/A   Overcast
8:24 AM 51.8 °F 46.4 °F 82% 29.90 in 8.0 mi SSW 5.8 mph - N/A   Overcast
8:51 AM 53.1 °F 48.0 °F 83% 29.91 in 8.0 mi Calm Calm - N/A   Overcast
9:51 AM 55.0 °F 48.9 °F 80% 29.91 in 6.0 mi WNW 3.5 mph - N/A   Haze
10:36 AM 57.2 °F 48.2 °F 72% 29.90 in 6.0 mi Variable 3.5 mph - N/A   Haze
10:51 AM 60.1 °F 48.9 °F 67% 29.91 in 7.0 mi West 3.5 mph - N/A   Partly Cloudy
11:51 AM 66.0 °F 50.0 °F 56% 29.88 in 10.0 mi Calm Calm - N/A   Clear
12:51 PM 69.1 °F 50.0 °F 51% 29.86 in 10.0 mi WNW 12.7 mph - N/A   Clear
1:51 PM 69.1 °F 48.9 °F 49% 29.85 in 9.0 mi NW 13.8 mph - N/A   Clear
2:51 PM 69.1 °F 50.0 °F 51% 29.83 in 9.0 mi NW 13.8 mph - N/A   Clear
3:51 PM 66.0 °F 50.0 °F 56% 29.83 in 7.0 mi NW 18.4 mph 23.0 mph N/A   Clear
4:51 PM 64.9 °F 50.0 °F 58% 29.82 in 7.0 mi WNW 16.1 mph 24.2 mph N/A   Clear
5:51 PM 63.0 °F 50.0 °F 63% 29.81 in 7.0 mi WNW 12.7 mph - N/A   Clear
6:51 PM 59.0 °F 50.0 °F 72% 29.83 in 6.0 mi WNW 10.4 mph - N/A   Haze
7:51 PM 55.9 °F 48.9 °F 77% 29.84 in 6.0 mi NW 8.1 mph - N/A   Haze
8:51 PM 55.9 °F 48.9 °F 77% 29.85 in 7.0 mi North 5.8 mph - N/A   Clear
9:51 PM 55.0 °F 48.9 °F 80% 29.86 in 7.0 mi SSE 4.6 mph - N/A   Clear
10:51 PM 54.0 °F 48.9 °F 83% 29.87 in 6.0 mi SSE 6.9 mph - N/A   Haze
11:51 PM 53.1 °F 48.9 °F 86% 29.87 in 5.0 mi South 5.8 mph - N/A   Partly Cloudy